星链-35757(STARLINK-35757)

导读

STARLINK-35757是美国SpaceX星链星座的卫星,于2025年10月31日发射入轨,属于星链网络扩容的组成部分。星链系统旨在为全球提供高速低延迟卫星互联网服务,该卫星延续星链设计,服务覆盖偏远地区、海运航空等场景,补充了星座的全球通信容量,进一步完善星链星座的服务覆盖与性能。

Basic Information
目录编号:
66270
目录名称:
STARLINK-35757
国际标识:
2025-247F
轨道中心:
EARTH
卫星名称:
星链-35757
卫星全名:
星链-35757(STARLINK-35757)
卫星状态:
在轨 (已飞行308 天)
发射日期:
2025-10-31 UTC
国别 :
美国 (US)
星等 :
--
Orbit Information
数据来源 国际轨道数据
星历时间: 2026-09-02T22:00:02+0800
1天前
查看轨道信息
半长轴: 6840.855km
偏心率: 0.0001131
轨道倾角: 53.157°
近地点辐角 97.751°
升交点赤经 85.743°
平近点角 274.431°
近地点: 461.944km
远地点: 463.492km
周期: 93.848分钟
每日圈数: 15.343953
Detailed Information
固有亮度:
5
最大亮度:
2.5
卫星平台:
Starlink V1.0
覆盖范围:
全球
运营商:
太空探索技术公司
运营商所在国:
美国
制造商(研发单位):
太空探索技术公司
制造商所在国:
美国
使用方式:
暂无
Satellite Introduction
Starlink 计划是 SpaceX 推出的全球卫星互联网项目,通过发射低轨道卫星,为全球尤其是偏远地区提供高速、低延迟的互联网服务。自 2019 年起,Starlink 已部署数千颗卫星,旨在缩小全球数字鸿沟,推动互联网普及。该项目还为军事、航空等行业提供通信支持,带来广泛经济效益。
2D Orbit Map
3D Orbit Map
Orbit Altitude Analysis Chart
Orbit Inclination Analysis Chart
Orbit Comprehensive Analysis Chart
View Comprehensive Chart
Conjunction Data List
Event ID Objects TCA Miss Dist (km) Collision Risk Probability Collision Risk Index (CRI) Action
CDM_260905-075306-425706-627021
2026-09-05T
07:53:24+0000
0.225 km
中距离
5.510619E-4 高风险 0.9
CDM_260905-061906-425706-627021
2026-09-05T
06:19:37+0000
1.112 km
极远距离
1.134692E-5 中风险 0.56
CDM_260830-162905-504806-627022
2026-08-30T
16:29:58+0000
1.579 km
极远距离
5.638203E-6 低风险 0.5
CDM_260905-092706-425706-627021
2026-09-05T
09:27:12+0000
1.411 km
极远距离
5.043979E-6 低风险 0.49
CDM_260905-103706-627006-925321
2026-09-05T
10:37:45+0000
1.888 km
极远距离
2.888626E-6 低风险 0.44
CDM_260905-044506-425706-627021
2026-09-05T
04:45:50+0000
2.349 km
极远距离
1.290417E-6 低风险 0.37
CDM_260905-110006-425706-627021
2026-09-05T
11:00:59+0000
2.661 km
极远距离
1.045228E-6 低风险 0.35
CDM_260831-165505-228106-627021
2026-08-31T
16:55:46+0000
2.632 km
极远距离
9.190896E-7 极低风险 0.34
CDM_260829-202305-258406-627022
2026-08-29T
20:23:20+0000
2.834 km
极远距离
7.497101E-7 极低风险 0.32